DW5181 Weather Reports


time (UTC)temp
C
wind
direction
speed
KPH
gust
KPH
rain 1hr
cm
rain 24hr
cm
rain mn
cm
humidity
%
barometer
mb
20260505065023 12 1 4.8 11.3 0.00 0.00 0.00 69 1009.6
20260505064534 12 58 1.6 17.7 0.00 0.00 0.00 68 1009.7
20260505064025 13 84 8.0 17.7 0.00 0.00 0.00 68 1009.6
20260505063536 13 30 3.2 11.3 0.00 0.00 0.00 67 1009.6
20260505063026 13 22 3.2 12.9 0.00 0.00 0.00 67 1009.6
20260505062518 13 63 6.4 14.5 0.00 0.00 0.00 66 1009.6
20260505062032 13 65 8.0 16.1 0.00 0.00 0.00 66 1009.6
20260505061522 13 62 6.4 16.1 0.00 0.00 0.00 66 1009.6
20260505061032 13 72 4.8 16.1 0.00 0.00 0.00 66 1009.6
20260505060524 13 87 4.8 16.1 0.00 0.00 0.00 66 1009.6
20260505060035 13 25 4.8 12.9 0.00 0.00 0.00 66 1009.7
20260505055526 13 39 1.6 9.7 0.00 0.00 0.00 66 1009.6
20260505055037 13 66 4.8 11.3 0.00 0.00 0.00 65 1009.7
20260505054526 13 55 4.8 9.7 0.00 0.00 0.00 65 1009.7
20260505054020 13 27 4.8 9.7 0.00 0.00 0.00 65 1009.7
20260505053530 13 79 4.8 16.1 0.00 0.00 0.00 65 1009.7
20260505053020 13 24 6.4 16.1 0.00 0.00 0.00 64 1009.7
20260505052532 13 27 3.2 11.3 0.00 0.00 0.00 64 1009.6
20260505052023 13 45 3.2 9.7 0.00 0.00 0.00 64 1009.7
20260505051533 13 56 3.2 8.0 0.00 0.00 0.00 63 1009.7
20260505051024 13 79 1.6 14.5 0.00 0.00 0.00 63 1009.7
20260505050535 13 23 6.4 14.5 0.00 0.00 0.00 63 1009.7
20260505041526 14 55 8.0 17.7 0.00 0.00 0.00 60 1009.8
20260505041021 14 73 6.4 12.9 0.00 0.00 0.00 60 1009.8
20260505040531 14 77 4.8 11.3 0.00 0.00 0.00 60 1009.8
20260505040039 14 35 8.0 14.5 0.00 0.00 0.00 59 1009.7
20260505035527 14 51 6.4 14.5 0.00 0.00 0.00 59 1009.7
20260505035038 14 53 6.4 16.1 0.00 0.00 0.00 58 1009.7
20260505034527 14 10 6.4 20.9 0.00 0.00 0.00 58 1009.7
20260505034039 14 48 9.7 20.9 0.00 0.00 0.00 58 1009.7
20260505033529 14 43 6.4 14.5 0.00 0.00 0.00 57 1009.7
20260505033019 15 25 8.0 14.5 0.00 0.00 0.00 56 1009.6
20260505032531 15 357 6.4 14.5 0.00 0.00 0.00 56 1009.7
20260505032026 15 20 6.4 14.5 0.00 0.00 0.00 56 1009.5
20260505031536 15 27 4.8 14.5 0.00 0.00 0.00 55 1009.7
20260505031028 15 41 8.0 20.9 0.00 0.00 0.00 54 1009.6
20260505030520 15 55 11.3 20.9 0.00 0.00 0.00 54 1009.7
20260505030051 15 354 4.8 16.1 0.00 0.00 0.00 54 1009.6
20260505025520 15 25 3.2 27.4 0.00 0.00 0.00 54 1009.7
20260505025031 15 356 12.9 27.4 0.00 0.00 0.00 53 1009.6
20260505024521 15 72 4.8 17.7 0.00 0.00 0.00 53 1009.7
20260505024033 15 70 6.4 16.1 0.00 0.00 0.00 53 1009.7
20260505023527 15 105 8.0 20.9 0.00 0.00 0.00 52 1009.6
20260505023036 15 71 11.3 20.9 0.00 0.00 0.00 52 1009.6
20260505022527 15 60 3.2 9.7 0.00 0.00 0.00 52 1009.6
20260505022018 15 42 4.8 16.1 0.00 0.00 0.00 52 1009.7
20260505021529 15 48 6.4 16.1 0.00 0.00 0.00 51 1009.7
20260505021020 15 11 8.0 16.1 0.00 0.00 0.00 51 1009.6
20260505020550 15 42 6.4 17.7 0.00 0.00 0.00 51 1009.6
20260505020041 15 11 8.0 19.3 0.00 0.00 0.00 51 1009.7
20260505015550 16 32 6.4 19.3 0.00 0.00 0.00 50 1009.6
20260505015040 16 91 8.0 19.3 0.00 0.00 0.00 50 1009.5
20260505014530 16 44 8.0 22.5 0.00 0.00 0.00 50 1009.6
20260505014024 16 51 6.4 22.5 0.00 0.00 0.00 50 1009.4
20260505013534 16 328 8.0 17.7 0.00 0.00 0.00 49 1009.4
20260505013044 16 46 11.3 17.7 0.00 0.00 0.00 49 1009.3
20260505012534 16 65 9.7 17.7 0.00 0.00 0.00 49 1009.2
20260505012024 16 38 6.4 16.1 0.00 0.00 0.00 49 1009.1
20260505011535 16 27 4.8 19.3 0.00 0.00 0.00 49 1009.0
20260505011025 16 43 9.7 19.3 0.00 0.00 0.00 49 1009.0
20260505010557 16 18 6.4 19.3 0.00 0.00 0.00 49 1008.9
20260505010026 16 75 9.7 22.5 0.00 0.00 0.00 49 1008.7
20260505005538 16 68 11.3 27.4 0.00 0.00 0.00 50 1008.8
20260505005048 16 26 6.4 27.4 0.00 0.00 0.00 51 1008.6
20260505004521 16 82 9.7 19.3 0.00 0.00 0.00 51 1008.6
20260505004032 16 25 4.8 25.7 0.00 0.00 0.00 51 1008.5
20260505003522 16 70 9.7 25.7 0.00 0.00 0.00 51 1008.3
20260505003032 16 347 9.7 25.7 0.00 0.00 0.00 50 1008.1
20260505002522 16 56 8.0 17.7 0.00 0.00 0.00 50 1008.0
20260505002033 17 346 6.4 17.7 0.00 0.00 0.00 49 1007.8
20260505001524 17 32 9.7 20.9 0.00 0.00 0.00 49 1007.7
20260505001035 17 18 8.0 17.7 0.00 0.00 0.00 49 1007.4
20260505000529 17 327 3.2 17.7 0.00 0.00 0.00 48 1007.3
20260505000020 18 53 1.6 25.7 0.00 0.00 0.00 45 1007.2
20260504235553 18 19 4.8 27.4 0.00 0.00 0.00 44 1007.1
20260504235023 18 342 8.0 32.2 0.00 0.00 0.00 43 1006.9
20260504234534 18 32 8.0 32.2 0.00 0.00 0.00 43 1006.8
20260504234026 18 56 11.3 29.0 0.00 0.00 0.00 42 1006.8
20260504233537 18 75 8.0 24.1 0.00 0.00 0.00 41 1006.8
20260504233025 19 34 9.7 24.1 0.00 0.00 0.00 41 1006.7
20260504232535 19 46 11.3 24.1 0.00 0.00 0.00 40 1006.6
20260504232030 20 51 9.7 27.4 0.00 0.00 0.00 39 1006.4
20260504231519 20 61 11.3 27.4 0.00 0.00 0.00 38 1006.3
20260504231029 20 51 12.9 27.4 0.00 0.00 0.00 37 1006.2
20260504230521 21 43 9.7 32.2 0.00 0.00 0.00 36 1006.0
20260504230032 21 62 11.3 32.2 0.00 0.00 0.00 33 1005.9
20260504225544 21 46 8.0 17.7 0.00 0.00 0.00 31 1005.8
20260504225055 21 74 4.8 12.9 0.00 0.00 0.00 31 1005.7
20260504224524 22 42 4.8 12.9 0.00 0.00 0.00 31 1005.7
20260504224036 21 58 3.2 14.5 0.00 0.00 0.00 31 1005.7
20260504223526 22 77 4.8 20.9 0.00 0.00 0.00 32 1005.6
20260504223020 22 14 9.7 25.7 0.00 0.00 0.00 31 1005.7
20260504222531 22 41 6.4 25.7 0.00 0.00 0.00 30 1005.7
20260504222021 22 75 6.4 14.5 0.00 0.00 0.00 30 1005.6
20260504221533 22 60 4.8 17.7 0.00 0.00 0.00 31 1005.6
20260504221022 22 69 9.7 17.7 0.00 0.00 0.00 30 1005.6
20260504220533 22 81 4.8 24.1 0.00 0.00 0.00 30 1005.7
20260504220024 22 55 4.8 24.1 0.00 0.00 0.00 30 1005.6
20260504215536 22 96 9.7 19.3 0.00 0.00 0.00 30 1005.7
20260504215032 22 62 6.4 25.7 0.00 0.00 0.00 30 1005.7
20260504214543 22 85 11.3 25.7 0.00 0.00 0.00 29 1005.7
20260504214053 22 75 6.4 22.5 0.00 0.00 0.00 30 1005.6
20260504213522 22 135 8.0 17.7 0.00 0.00 0.00 29 1005.6
20260504213033 22 8 8.0 17.7 0.00 0.00 0.00 29 1005.6
20260504212525 22 72 8.0 16.1 0.00 0.00 0.00 28 1005.7
20260504212036 22 20 4.8 17.7 0.00 0.00 0.00 29 1005.6
20260504211527 22 325 8.0 19.3 0.00 0.00 0.00 29 1005.6
20260504211037 22 92 6.4 22.5 0.00 0.00 0.00 30 1005.6
20260504210526 22 41 9.7 27.4 0.00 0.00 0.00 29 1005.6
20260504210020 22 47 9.7 27.4 0.00 0.00 0.00 29 1005.7
20260504205531 22 74 11.3 22.5 0.00 0.00 0.00 28 1005.7
20260504205023 22 57 4.8 12.9 0.00 0.00 0.00 29 1005.7
20260504204534 22 41 6.4 24.1 0.00 0.00 0.00 29 1005.7
20260504204045 22 57 9.7 24.1 0.00 0.00 0.00 28 1005.7
20260504203533 22 91 4.8 24.1 0.00 0.00 0.00 28 1005.8
20260504203024 22 129 8.0 25.7 0.00 0.00 0.00 28 1005.7
20260504202535 22 101 12.9 25.7 0.00 0.00 0.00 27 1005.8
20260504202026 22 86 11.3 22.5 0.00 0.00 0.00 28 1005.8
20260504201519 22 32 4.8 24.1 0.00 0.00 0.00 28 1005.8
20260504201030 22 69 9.7 24.1 0.00 0.00 0.00 28 1005.8
20260504200521 22 60 9.7 24.1 0.00 0.00 0.00 27 1005.7
20260504200032 22 43 9.7 22.5 0.00 0.00 0.00 28 1005.7
20260504195521 22 94 8.0 20.9 0.00 0.00 0.00 29 1005.9
20260504195054 22 48 12.9 30.6 0.00 0.00 0.00 28 1005.9
20260504194523 21 13 14.5 32.2 0.00 0.00 0.00 28 1005.9
20260504194055 22 38 9.7 32.2 0.00 0.00 0.00 29 1006.0
20260504193524 22 8 8.0 30.6 0.00 0.00 0.00 30 1006.0
20260504193019 21 115 8.0 37.0 0.00 0.00 0.00 29 1005.9
20260504192531 21 32 20.9 37.0 0.00 0.00 0.00 29 1005.8
20260504192041 21 89 14.5 30.6 0.00 0.00 0.00 28 1005.9
20260504191532 21 63 14.5 29.0 0.00 0.00 0.00 28 1005.7
20260504191021 21 6 8.0 30.6 0.00 0.00 0.00 28 1006.0
20260504190532 21 63 17.7 30.6 0.00 0.00 0.00 27 1006.2
20260504190023 21 79 11.3 25.7 0.00 0.00 0.00 29 1006.1
20260504185532 22 133 9.7 19.3 0.00 0.00 0.00 29 1006.1
20260504185022 21 342 4.8 27.4 0.00 0.00 0.00 29 1006.0
20260504184531 21 91 9.7 27.4 0.00 0.00 0.00 30 1006.1
20260504184026 21 71 14.5 27.4 0.00 0.00 0.00 29 1006.3
20260504183518 21 60 11.3 27.4 0.00 0.00 0.00 30 1006.3
20260504183030 21 32 14.5 22.5 0.00 0.00 0.00 29 1006.2
20260504182519 21 57 9.7 25.7 0.00 0.00 0.00 31 1006.3
20260504182048 21 72 12.9 25.7 0.00 0.00 0.00 30 1006.4
20260504181519 21 69 9.7 24.1 0.00 0.00 0.00 30 1006.3
20260504181028 21 142 12.9 24.1 0.00 0.00 0.00 30 1006.5
20260504180519 20 64 8.0 27.4 0.00 0.00 0.00 31 1006.5
20260504180030 20 65 14.5 27.4 0.00 0.00 0.00 29 1006.6
20260504175524 20 60 8.0 32.2 0.00 0.00 0.00 30 1006.6
20260504175034 20 30 14.5 35.4 0.00 0.00 0.00 29 1006.6
20260504174523 20 131 11.3 32.2 0.00 0.00 0.00 30 1006.8
20260504174035 20 101 9.7 25.7 0.00 0.00 0.00 31 1006.6
20260504173545 20 28 11.3 24.1 0.00 0.00 0.00 31 1006.8
20260504173036 20 69 8.0 24.1 0.00 0.00 0.00 32 1006.8
20260504172527 20 70 4.8 29.0 0.00 0.00 0.00 33 1006.7
20260504172018 20 79 9.7 29.0 0.00 0.00 0.00 31 1006.7
20260504171530 20 44 11.3 27.4 0.00 0.00 0.00 33 1006.6
20260504171024 20 59 9.7 30.6 0.00 0.00 0.00 32 1006.7
20260504170516 20 129 11.3 30.6 0.00 0.00 0.00 31 1006.9
20260504151028 18 82 9.7 25.7 0.00 0.13 0.00 36 1008.2
20260504150516 18 141 4.8 22.5 0.00 0.13 0.00 37 1008.3
20260504141035 16 63 9.7 27.4 0.00 0.15 0.00 39 1008.6
20260504140529 16 91 9.7 20.9 0.00 0.15 0.00 39 1008.7
20260504130521 15 113 8.0 20.9 0.00 0.15 0.00 43 1009.4
20260504110519 9 27 3.2 9.7 0.00 0.15 0.00 55 1010.1
20260504100530 9 15 3.2 6.4 0.00 0.15 0.00 54 1010.0
20260504081532 8 53 1.6 3.2 0.00 0.15 0.00 56 1009.9
20260504081021 8 34 1.6 3.2 0.00 0.15 0.00 56 1009.8
20260504080552 7 19 0.0 3.2 0.00 0.15 0.00 57 1009.8